QPF
0.00 0.00 0.00 0.00 0.00 0.00 0.00 0.00 0.00 0.00 0.00 0.00 0.00 0.00 0.00 0.00 0.00 0.01 0.02 0.05 0.05 0.03 0.03 0.04 0.03 0.01 0.01 0.01 0.02 0.04 0.03 0.02 0.02 0.02 0.01 0.00 0.00 0.00 0.00 0.01 0.01 0.02 0.02
0.00 0.00 0.00 0.00 0.00 0.00 0.00 0.00 0.00 0.00 0.00 0.00 0.00 0.00 0.00 0.00 0.00 0.01 0.01 0.05 0.14 0.12 0.08 0.07 0.04 0.02 0.01 0.01 0.02 0.03 0.03 0.02 0.01 0.01 0.00 0.00 0.00 0.00 0.00 0.01 0.02 0.01 0.01
0.00 0.00 0.00 0.00 0.00 0.00 0.00 0.00 0.00 0.00 0.00 0.00 0.00 0.00 0.00 0.00 0.00 0.00 0.02 0.02 0.07 0.15 0.17 0.12 0.07 0.04 0.02 0.02 0.01 0.01 0.01 0.00 0.00 0.00 0.00 0.00 0.00 0.00 0.00 0.00 0.01 0.00 0.00
0.00 0.00 0.00 0.00 0.00 0.00 0.00 0.00 0.00 0.00 0.00 0.00 0.00 0.00 0.00 0.00 0.00 0.00 0.00 0.01 0.02 0.05 0.10 0.09 0.06 0.05 0.03 0.02 0.01 0.01 0.00 0.00 0.00 0.00 0.00 0.00 0.00 0.00 0.00 0.00 0.00 0.00 0.00
0.03 0.01 0.00 0.01 0.01 0.00 0.00 0.00 0.01 0.00 0.00 0.00 0.00 0.00 0.00 0.00 0.00 0.00 0.00 0.00 0.00 0.00 0.01 0.01 0.01 0.01 0.02 0.02 0.02 0.01 0.00 0.00 0.00 0.00 0.00 0.00 0.00 0.00 0.00 0.00 0.00 0.00 0.00
0.09 0.06 0.03 0.03 0.02 0.01 0.01 0.02 0.02 0.01 0.01 0.00 0.00 0.00 0.00 0.00 0.00 0.00 0.00 0.00 0.00 0.00 0.00 0.00 0.00 0.00 0.00 0.01 0.01 0.01 0.01 0.01 0.01 0.01 0.00 0.00 0.00 0.00 0.00 0.00 0.00 0.00 0.00
0.20 0.19 0.11 0.06 0.03 0.02 0.02 0.04 0.05 0.05 0.05 0.03 0.01 0.01 0.00 0.00 0.00 0.00 0.00 0.00 0.00 0.00 0.00 0.00 0.00 0.00 0.00 0.00 0.00 0.00 0.01 0.02 0.03 0.02 0.01 0.00 0.00 0.00 0.00 0.00 0.01 0.01 0.00
0.24 0.26 0.23 0.16 0.09 0.05 0.06 0.07 0.09 0.11 0.12 0.10 0.06 0.02 0.00 0.00 0.00 0.00 0.00 0.00 0.00 0.00 0.00 0.00 0.00 0.00 0.00 0.00 0.00 0.00 0.00 0.01 0.01 0.01 0.01 0.00 0.00 0.00 0.00 0.00 0.00 0.01 0.01
0.14 0.19 0.26 0.26 0.19 0.12 0.10 0.12 0.15 0.18 0.21 0.21 0.15 0.07 0.01 0.00 0.00 0.00 0.00 0.00 0.00 0.00 0.00 0.00 0.00 0.00 0.00 0.00 0.00 0.00 0.00 0.00 0.00 0.01 0.01 0.01 0.01 0.01 0.01 0.01 0.01 0.01 0.01
0.06 0.10 0.16 0.24 0.28 0.23 0.22 0.21 0.21 0.22 0.23 0.24 0.24 0.14 0.05 0.02 0.00 0.00 0.00 0.00 0.00 0.00 0.00 0.00 0.00 0.00 0.00 0.00 0.00 0.00 0.00 0.00 0.00 0.00 0.00 0.01 0.01 0.01 0.02 0.02 0.02 0.02 0.02
0.03 0.04 0.08 0.13 0.18 0.22 0.26 0.35 0.32 0.26 0.20 0.16 0.20 0.22 0.20 0.16 0.08 0.02 0.00 0.00 0.00 0.00 0.00 0.00 0.00 0.00 0.00 0.00 0.00 0.00 0.00 0.00 0.00 0.00 0.00 0.00 0.01 0.01 0.02 0.01 0.01 0.02 0.02
0.02 0.03 0.04 0.05 0.07 0.12 0.18 0.27 0.31 0.33 0.28 0.19 0.15 0.17 0.19 0.23 0.26 0.18 0.07 0.02 0.00 0.00 0.00 0.00 0.00 0.00 0.00 0.00 0.00 0.00 0.00 0.00 0.00 0.00 0.00 0.00 0.00 0.00 0.01 0.01 0.02 0.02 0.02
0.01 0.02 0.04 0.06 0.07 0.12 0.21 0.26 0.28 0.27 0.26 0.21 0.15 0.13 0.15 0.17 0.20 0.24 0.19 0.08 0.01 0.00 0.00 0.00 0.00 0.00 0.00 0.00 0.00 0.00 0.00 0.00 0.00 0.00 0.00 0.00 0.00 0.00 0.00 0.00 0.00 0.00 0.01
0.00 0.00 0.01 0.01 0.02 0.06 0.15 0.22 0.21 0.19 0.21 0.20 0.18 0.16 0.18 0.25 0.24 0.22 0.23 0.16 0.06 0.01 0.01 0.00 0.00 0.00 0.00 0.00 0.00 0.00 0.00 0.00 0.00 0.00 0.00 0.00 0.00 0.00 0.00 0.00 0.00 0.00 0.00
0.00 0.00 0.00 0.00 0.01 0.02 0.03 0.07 0.11 0.17 0.16 0.16 0.17 0.18 0.20 0.32 0.41 0.31 0.27 0.23 0.14 0.05 0.02 0.00 0.00 0.00 0.00 0.00 0.00 0.00 0.00 0.00 0.00 0.00 0.00 0.00 0.00 0.00 0.00 0.00 0.00 0.00 0.00
0.00 0.00 0.00 0.00 0.00 0.00 0.02 0.02 0.05 0.12 0.14 0.13 0.15 0.18 0.18 0.23 0.36 0.40 0.34 0.29 0.22 0.12 0.04 0.01 0.01 0.01 0.00 0.00 0.00 0.00 0.00 0.00 0.00 0.00 0.00 0.00 0.00 0.00 0.00 0.00 0.00 0.00 0.00
0.00 0.00 0.00 0.00 0.00 0.00 0.00 0.00 0.00 0.02 0.03 0.05 0.07 0.10 0.14 0.20 0.24 0.30 0.34 0.33 0.31 0.23 0.13 0.06 0.02 0.01 0.00 0.00 0.00 0.00 0.00 0.00 0.00 0.00 0.00 0.00 0.00 0.00 0.00 0.00 0.00 0.00 0.00
0.00 0.01 0.01 0.01 0.00 0.00 0.00 0.00 0.00 0.00 0.00 0.01 0.02 0.04 0.07 0.13 0.17 0.21 0.27 0.30 0.31 0.30 0.25 0.17 0.09 0.04 0.02 0.02 0.01 0.00 0.00 0.00 0.00 0.00 0.00 0.00 0.00 0.00 0.00 0.00 0.00 0.00 0.00
0.00 0.00 0.01 0.01 0.01 0.00 0.00 0.00 0.00 0.00 0.00 0.00 0.00 0.01 0.03 0.06 0.10 0.16 0.22 0.26 0.26 0.27 0.26 0.21 0.16 0.12 0.09 0.05 0.02 0.00 0.00 0.00 0.00 0.00 0.00 0.00 0.00 0.00 0.00 0.00 0.00 0.00 0.00
0.00 0.00 0.01 0.02 0.02 0.01 0.00 0.00 0.00 0.00 0.00 0.00 0.00 0.00 0.01 0.03 0.08 0.14 0.19 0.22 0.23 0.23 0.23 0.21 0.19 0.15 0.15 0.10 0.04 0.01 0.00 0.00 0.00 0.00 0.00 0.00 0.00 0.00 0.00 0.00 0.00 0.00 0.00
0.02 0.01 0.01 0.01 0.03 0.04 0.03 0.02 0.01 0.00 0.00 0.00 0.00 0.00 0.01 0.03 0.07 0.12 0.15 0.18 0.21 0.24 0.24 0.22 0.19 0.14 0.11 0.09 0.03 0.01 0.00 0.00 0.00 0.00 0.00 0.00 0.00 0.00 0.00 0.00 0.00 0.00 0.00
0.07 0.05 0.03 0.02 0.02 0.03 0.04 0.06 0.04 0.01 0.00 0.00 0.00 0.00 0.00 0.01 0.04 0.08 0.14 0.17 0.20 0.21 0.22 0.20 0.17 0.13 0.09 0.07 0.05 0.03 0.01 0.00 0.00 0.00 0.00 0.00 0.00 0.00 0.00 0.00 0.00 0.00 0.00
0.13 0.12 0.10 0.07 0.06 0.05 0.04 0.05 0.06 0.03 0.02 0.01 0.00 0.00 0.00 0.01 0.01 0.03 0.07 0.13 0.15 0.17 0.16 0.15 0.11 0.08 0.07 0.06 0.06 0.04 0.02 0.00 0.00 0.00 0.00 0.00 0.00 0.00 0.00 0.00 0.00 0.00 0.00
0.15 0.16 0.17 0.19 0.14 0.08 0.06 0.06 0.07 0.04 0.02 0.01 0.01 0.01 0.00 0.00 0.01 0.02 0.03 0.04 0.06 0.09 0.10 0.09 0.08 0.07 0.07 0.08 0.07 0.07 0.07 0.03 0.01 0.00 0.00 0.00 0.00 0.00 0.00 0.00 0.00 0.00 0.00
0.12 0.14 0.18 0.23 0.19 0.12 0.10 0.09 0.09 0.05 0.02 0.02 0.02 0.02 0.01 0.01 0.02 0.04 0.04 0.03 0.02 0.04 0.07 0.10 0.11 0.11 0.11 0.12 0.10 0.08 0.07 0.04 0.01 0.00 0.00 0.00 0.00 0.00 0.00 0.00 0.00 0.00 0.00
0.05 0.07 0.09 0.13 0.15 0.14 0.13 0.09 0.10 0.12 0.07 0.06 0.06 0.03 0.03 0.03 0.04 0.07 0.07 0.05 0.02 0.03 0.08 0.10 0.10 0.08 0.07 0.06 0.06 0.06 0.06 0.06 0.03 0.01 0.01 0.00 0.00 0.00 0.00 0.00 0.00 0.00 0.00
MSLP
1014.21 1014.39 1014.47 1014.49 1014.47 1014.48 1014.52 1014.61 1014.74 1014.88 1015.01 1015.12 1015.20 1015.26 1015.29 1015.32 1015.34 1015.35 1015.36 1015.34 1015.30 1015.23 1015.16 1015.10 1015.08 1015.12 1015.21 1015.35 1015.50 1015.64 1015.74 1015.80 1015.81 1015.82 1015.85 1015.94 1016.08 1016.28 1016.48 1016.63 1016.66 1016.56 1016.30
1013.93 1014.09 1014.18 1014.23 1014.28 1014.35 1014.46 1014.62 1014.81 1015.01 1015.20 1015.36 1015.48 1015.57 1015.63 1015.66 1015.68 1015.68 1015.66 1015.61 1015.54 1015.45 1015.38 1015.33 1015.34 1015.39 1015.50 1015.63 1015.76 1015.86 1015.91 1015.91 1015.88 1015.85 1015.87 1015.95 1016.11 1016.33 1016.54 1016.70 1016.74 1016.62 1016.35
1013.59 1013.74 1013.84 1013.94 1014.06 1014.21 1014.41 1014.65 1014.92 1015.18 1015.43 1015.64 1015.80 1015.91 1015.99 1016.03 1016.03 1016.01 1015.95 1015.87 1015.78 1015.68 1015.61 1015.57 1015.59 1015.67 1015.78 1015.91 1016.02 1016.08 1016.08 1016.02 1015.94 1015.87 1015.85 1015.92 1016.08 1016.30 1016.53 1016.69 1016.74 1016.63 1016.37
1013.25 1013.38 1013.52 1013.66 1013.85 1014.09 1014.38 1014.70 1015.04 1015.37 1015.66 1015.91 1016.10 1016.24 1016.33 1016.37 1016.37 1016.32 1016.25 1016.14 1016.02 1015.91 1015.84 1015.81 1015.85 1015.94 1016.06 1016.19 1016.28 1016.30 1016.26 1016.15 1016.01 1015.89 1015.84 1015.88 1016.02 1016.23 1016.45 1016.63 1016.69 1016.60 1016.36
1012.94 1013.07 1013.23 1013.43 1013.69 1014.00 1014.37 1014.76 1015.16 1015.53 1015.86 1016.14 1016.36 1016.52 1016.63 1016.68 1016.68 1016.63 1016.54 1016.42 1016.29 1016.17 1016.09 1016.06 1016.11 1016.21 1016.34 1016.46 1016.53 1016.54 1016.45 1016.30 1016.12 1015.95 1015.85 1015.85 1015.96 1016.15 1016.37 1016.54 1016.62 1016.55 1016.34
1012.67 1012.81 1012.99 1013.24 1013.55 1013.93 1014.35 1014.79 1015.22 1015.62 1015.98 1016.28 1016.52 1016.71 1016.85 1016.93 1016.96 1016.92 1016.84 1016.72 1016.59 1016.46 1016.38 1016.35 1016.39 1016.48 1016.61 1016.72 1016.79 1016.78 1016.68 1016.50 1016.28 1016.08 1015.93 1015.89 1015.95 1016.11 1016.30 1016.47 1016.56 1016.51 1016.34
1012.45 1012.60 1012.80 1013.08 1013.43 1013.84 1014.29 1014.74 1015.18 1015.59 1015.96 1016.28 1016.56 1016.79 1016.98 1017.11 1017.19 1017.21 1017.16 1017.07 1016.94 1016.81 1016.71 1016.67 1016.68 1016.76 1016.88 1016.98 1017.05 1017.03 1016.93 1016.74 1016.51 1016.27 1016.09 1016.01 1016.02 1016.14 1016.30 1016.45 1016.53 1016.51 1016.37
1012.27 1012.41 1012.63 1012.93 1013.29 1013.71 1014.15 1014.59 1015.02 1015.42 1015.79 1016.13 1016.44 1016.73 1016.99 1017.21 1017.38 1017.47 1017.48 1017.42 1017.32 1017.19 1017.07 1017.00 1016.99 1017.04 1017.13 1017.23 1017.29 1017.28 1017.19 1017.01 1016.78 1016.54 1016.34 1016.21 1016.18 1016.24 1016.36 1016.49 1016.57 1016.56 1016.45
1012.10 1012.25 1012.47 1012.76 1013.11 1013.51 1013.92 1014.32 1014.72 1015.09 1015.45 1015.81 1016.17 1016.53 1016.89 1017.21 1017.48 1017.66 1017.75 1017.75 1017.68 1017.55 1017.42 1017.32 1017.27 1017.28 1017.34 1017.42 1017.49 1017.49 1017.43 1017.28 1017.07 1016.85 1016.64 1016.49 1016.42 1016.43 1016.51 1016.61 1016.67 1016.67 1016.59
1011.94 1012.09 1012.30 1012.58 1012.90 1013.25 1013.61 1013.96 1014.30 1014.64 1014.99 1015.36 1015.77 1016.20 1016.64 1017.07 1017.45 1017.74 1017.92 1017.98 1017.94 1017.83 1017.69 1017.56 1017.47 1017.44 1017.47 1017.54 1017.61 1017.64 1017.61 1017.51 1017.35 1017.15 1016.96 1016.80 1016.70 1016.68 1016.72 1016.78 1016.83 1016.84 1016.77
1011.81 1011.95 1012.15 1012.40 1012.67 1012.97 1013.26 1013.54 1013.82 1014.11 1014.44 1014.82 1015.26 1015.75 1016.27 1016.79 1017.27 1017.66 1017.92 1018.05 1018.05 1017.96 1017.81 1017.65 1017.53 1017.48 1017.48 1017.54 1017.62 1017.69 1017.71 1017.67 1017.57 1017.42 1017.26 1017.11 1017.00 1016.95 1016.95 1016.99 1017.02 1017.03 1016.99
1011.70 1011.84 1012.03 1012.24 1012.47 1012.70 1012.92 1013.13 1013.35 1013.59 1013.88 1014.24 1014.69 1015.21 1015.79 1016.37 1016.92 1017.38 1017.71 1017.89 1017.94 1017.87 1017.74 1017.58 1017.45 1017.37 1017.37 1017.43 1017.53 1017.63 1017.71 1017.74 1017.71 1017.63 1017.51 1017.39 1017.28 1017.22 1017.19 1017.21 1017.23 1017.24 1017.22
1011.64 1011.78 1011.95 1012.14 1012.32 1012.50 1012.65 1012.79 1012.94 1013.12 1013.37 1013.70 1014.13 1014.65 1015.23 1015.84 1016.41 1016.91 1017.28 1017.52 1017.61 1017.58 1017.48 1017.34 1017.22 1017.15 1017.15 1017.22 1017.35 1017.49 1017.63 1017.72 1017.77 1017.75 1017.69 1017.61 1017.52 1017.46 1017.42 1017.42 1017.43 1017.45 1017.44
1011.61 1011.77 1011.93 1012.10 1012.25 1012.37 1012.48 1012.56 1012.66 1012.78 1012.97 1013.25 1013.63 1014.11 1014.65 1015.23 1015.80 1016.30 1016.69 1016.96 1017.10 1017.12 1017.07 1016.98 1016.89 1016.85 1016.88 1016.97 1017.12 1017.30 1017.49 1017.64 1017.75 1017.80 1017.80 1017.77 1017.71 1017.66 1017.62 1017.60 1017.61 1017.62 1017.63
1011.61 1011.77 1011.94 1012.10 1012.23 1012.33 1012.41 1012.46 1012.51 1012.59 1012.72 1012.94 1013.25 1013.65 1014.12 1014.63 1015.14 1015.61 1016.01 1016.30 1016.48 1016.57 1016.58 1016.56 1016.53 1016.55 1016.61 1016.73 1016.90 1017.11 1017.32 1017.52 1017.68 1017.79 1017.85 1017.86 1017.84 1017.81 1017.77 1017.75 1017.75 1017.76 1017.77
1011.60 1011.78 1011.96 1012.11 1012.24 1012.34 1012.41 1012.45 1012.48 1012.53 1012.63 1012.78 1013.01 1013.31 1013.68 1014.10 1014.54 1014.95 1015.32 1015.62 1015.85 1016.00 1016.10 1016.16 1016.21 1016.29 1016.39 1016.53 1016.72 1016.94 1017.17 1017.39 1017.59 1017.74 1017.84 1017.90 1017.92 1017.91 1017.88 1017.85 1017.84 1017.84 1017.84
1011.55 1011.74 1011.92 1012.09 1012.23 1012.34 1012.43 1012.49 1012.53 1012.58 1012.65 1012.76 1012.91 1013.12 1013.39 1013.70 1014.04 1014.39 1014.72 1015.03 1015.29 1015.51 1015.69 1015.84 1015.97 1016.10 1016.25 1016.41 1016.60 1016.81 1017.03 1017.25 1017.46 1017.64 1017.78 1017.87 1017.93 1017.94 1017.93 1017.90 1017.87 1017.85 1017.85
1011.43 1011.62 1011.80 1011.97 1012.14 1012.28 1012.40 1012.51 1012.59 1012.66 1012.74 1012.82 1012.92 1013.05 1013.22 1013.43 1013.68 1013.95 1014.25 1014.55 1014.84 1015.12 1015.37 1015.60 1015.80 1015.99 1016.16 1016.33 1016.50 1016.69 1016.88 1017.08 1017.28 1017.47 1017.64 1017.77 1017.86 1017.90 1017.91 1017.89 1017.85 1017.81 1017.78
1011.25 1011.41 1011.58 1011.75 1011.93 1012.11 1012.29 1012.45 1012.59 1012.71 1012.81 1012.90 1012.98 1013.06 1013.15 1013.28 1013.44 1013.65 1013.90 1014.18 1014.49 1014.81 1015.12 1015.41 1015.67 1015.89 1016.07 1016.23 1016.38 1016.53 1016.68 1016.85 1017.03 1017.22 1017.40 1017.56 1017.69 1017.77 1017.81 1017.80 1017.76 1017.70 1017.65
1011.01 1011.12 1011.26 1011.42 1011.61 1011.82 1012.05 1012.27 1012.49 1012.67 1012.82 1012.93 1013.01 1013.06 1013.11 1013.18 1013.27 1013.42 1013.63 1013.89 1014.20 1014.54 1014.88 1015.20 1015.49 1015.73 1015.92 1016.06 1016.17 1016.28 1016.39 1016.52 1016.68 1016.86 1017.06 1017.25 1017.42 1017.54 1017.61 1017.63 1017.60 1017.54 1017.47
1010.75 1010.81 1010.90 1011.03 1011.22 1011.44 1011.70 1011.98 1012.26 1012.51 1012.71 1012.86 1012.96 1013.01 1013.04 1013.06 1013.11 1013.21 1013.38 1013.61 1013.90 1014.24 1014.59 1014.92 1015.22 1015.46 1015.64 1015.76 1015.84 1015.90 1015.97 1016.07 1016.21 1016.39 1016.60 1016.82 1017.03 1017.20 1017.32 1017.37 1017.37 1017.33 1017.26
1010.53 1010.52 1010.55 1010.65 1010.80 1011.03 1011.30 1011.61 1011.92 1012.22 1012.47 1012.66 1012.79 1012.85 1012.88 1012.88 1012.90 1012.96 1013.09 1013.29 1013.55 1013.86 1014.20 1014.53 1014.82 1015.05 1015.21 1015.31 1015.37 1015.41 1015.45 1015.53 1015.65 1015.83 1016.05 1016.30 1016.54 1016.76 1016.93 1017.03 1017.08 1017.07 1017.03
1010.40 1010.32 1010.30 1010.34 1010.45 1010.65 1010.91 1011.21 1011.53 1011.85 1012.13 1012.34 1012.49 1012.57 1012.60 1012.60 1012.60 1012.64 1012.74 1012.90 1013.13 1013.41 1013.72 1014.02 1014.30 1014.51 1014.66 1014.75 1014.80 1014.82 1014.85 1014.92 1015.04 1015.22 1015.45 1015.71 1015.98 1016.24 1016.46 1016.62 1016.71 1016.76 1016.77
1010.42 1010.29 1010.20 1010.19 1010.25 1010.38 1010.59 1010.86 1011.15 1011.45 1011.72 1011.94 1012.09 1012.18 1012.22 1012.23 1012.23 1012.26 1012.33 1012.46 1012.66 1012.91 1013.18 1013.46 1013.71 1013.91 1014.06 1014.15 1014.19 1014.22 1014.25 1014.32 1014.43 1014.61 1014.84 1015.11 1015.39 1015.67 1015.92 1016.13 1016.29 1016.39 1016.47
1010.61 1010.44 1010.31 1010.24 1010.23 1010.29 1010.42 1010.61 1010.83 1011.07 1011.30 1011.50 1011.64 1011.74 1011.79 1011.81 1011.82 1011.84 1011.91 1012.03 1012.20 1012.42 1012.66 1012.91 1013.15 1013.34 1013.49 1013.59 1013.65 1013.69 1013.73 1013.80 1013.91 1014.07 1014.29 1014.54 1014.82 1015.09 1015.36 1015.59 1015.80 1015.97 1016.12
1010.96 1010.78 1010.62 1010.49 1010.41 1010.38 1010.41 1010.50 1010.63 1010.78 1010.94 1011.09 1011.21 1011.30 1011.36 1011.39 1011.42 1011.47 1011.54 1011.66 1011.82 1012.02 1012.24 1012.47 1012.69 1012.88 1013.04 1013.15 1013.23 1013.28 1013.34 1013.41 1013.51 1013.65 1013.83 1014.05 1014.29 1014.54 1014.79 1015.03 1015.27 1015.49 1015.70
Thickness
5749 5746 5743 5740 5739 5738 5736 5733 5732 5733 5733 5732 5733 5733 5733 5734 5736 5738 5741 5743 5744 5745 5745 5745 5745 5746 5746 5747 5747 5747 5747 5748 5749 5750 5751 5752 5753 5753 5754 5754 5755 5756 5756
5749 5746 5742 5739 5738 5737 5735 5732 5730 5729 5729 5728 5727 5728 5728 5729 5729 5731 5733 5736 5737 5738 5739 5739 5740 5741 5741 5742 5743 5744 5744 5745 5747 5748 5749 5750 5751 5751 5752 5753 5754 5754 5754
5750 5746 5742 5738 5736 5735 5732 5729 5727 5727 5725 5723 5722 5722 5723 5723 5723 5724 5726 5728 5730 5731 5732 5733 5734 5735 5736 5736 5737 5738 5740 5742 5744 5746 5747 5748 5749 5749 5750 5750 5752 5752 5752
5750 5746 5742 5739 5736 5733 5730 5727 5724 5722 5720 5717 5715 5715 5717 5717 5717 5718 5719 5720 5722 5724 5725 5726 5728 5729 5730 5731 5732 5734 5736 5738 5740 5743 5744 5745 5747 5747 5748 5748 5750 5750 5751
5750 5746 5742 5740 5736 5732 5729 5725 5722 5719 5713 5711 5710 5710 5710 5711 5712 5713 5712 5713 5714 5717 5719 5720 5721 5723 5724 5726 5728 5730 5732 5734 5737 5739 5741 5743 5744 5745 5746 5746 5747 5748 5749
5747 5744 5741 5738 5734 5730 5726 5722 5718 5715 5710 5707 5706 5703 5703 5705 5707 5708 5708 5708 5708 5710 5712 5713 5715 5717 5718 5720 5722 5725 5728 5731 5733 5736 5738 5740 5742 5743 5743 5744 5745 5746 5747
5742 5739 5736 5733 5731 5727 5723 5719 5714 5710 5705 5702 5697 5693 5694 5697 5700 5703 5703 5703 5703 5705 5706 5707 5709 5711 5712 5713 5716 5719 5723 5726 5728 5731 5734 5736 5738 5740 5741 5741 5742 5744 5745
5739 5736 5732 5728 5726 5723 5719 5716 5711 5705 5701 5699 5693 5685 5681 5684 5692 5697 5698 5698 5699 5701 5702 5702 5704 5705 5707 5708 5710 5713 5716 5719 5722 5725 5728 5731 5733 5735 5737 5738 5739 5741 5743
5736 5732 5729 5724 5720 5717 5713 5711 5709 5704 5697 5694 5693 5686 5677 5674 5682 5690 5693 5694 5695 5697 5698 5699 5699 5700 5702 5704 5706 5708 5710 5713 5715 5718 5721 5724 5727 5730 5732 5734 5736 5738 5740
5731 5727 5724 5720 5716 5712 5708 5706 5706 5703 5698 5690 5688 5689 5687 5684 5680 5680 5686 5690 5691 5692 5694 5696 5696 5697 5698 5700 5702 5703 5705 5707 5710 5712 5715 5718 5721 5724 5726 5728 5730 5732 5735
5725 5723 5719 5715 5711 5707 5704 5702 5700 5698 5696 5691 5687 5684 5683 5683 5684 5680 5678 5683 5686 5689 5691 5693 5694 5694 5695 5697 5699 5700 5701 5703 5705 5707 5710 5712 5715 5718 5719 5721 5723 5726 5728
5719 5717 5714 5711 5707 5703 5700 5698 5697 5694 5693 5690 5687 5683 5680 5679 5679 5679 5677 5678 5680 5685 5688 5690 5691 5692 5693 5694 5696 5697 5699 5700 5701 5703 5705 5707 5709 5711 5713 5715 5717 5719 5721
5712 5710 5708 5705 5702 5699 5696 5693 5691 5690 5689 5687 5685 5682 5681 5681 5681 5678 5676 5675 5678 5682 5685 5687 5689 5690 5691 5692 5693 5695 5696 5697 5698 5699 5700 5701 5703 5705 5707 5709 5711 5713 5715
5707 5704 5702 5699 5697 5694 5692 5689 5686 5686 5685 5684 5683 5681 5680 5680 5680 5678 5676 5673 5673 5676 5680 5684 5688 5689 5691 5691 5691 5692 5693 5693 5694 5695 5696 5697 5698 5699 5701 5702 5704 5706 5709
5701 5698 5696 5693 5691 5689 5687 5685 5682 5681 5681 5681 5680 5680 5680 5680 5680 5679 5678 5675 5672 5670 5674 5682 5686 5690 5691 5690 5689 5689 5690 5690 5690 5691 5691 5692 5693 5694 5695 5697 5699 5702 5704
5696 5692 5689 5687 5686 5684 5683 5681 5679 5678 5677 5677 5677 5677 5677 5678 5679 5678 5677 5676 5674 5673 5674 5683 5687 5691 5691 5689 5688 5688 5688 5687 5687 5687 5688 5689 5689 5690 5692 5693 5695 5698 5701
5691 5687 5685 5682 5681 5680 5678 5677 5675 5675 5674 5674 5674 5675 5675 5676 5677 5677 5676 5675 5674 5673 5673 5679 5684 5687 5688 5687 5686 5686 5685 5685 5685 5685 5685 5686 5686 5687 5688 5689 5691 5693 5696
5685 5683 5680 5677 5676 5675 5674 5673 5672 5672 5671 5670 5671 5672 5673 5674 5674 5675 5674 5673 5672 5673 5672 5673 5677 5680 5683 5684 5684 5682 5683 5683 5683 5683 5683 5683 5683 5684 5684 5685 5686 5688 5690
5680 5679 5676 5673 5672 5671 5670 5670 5670 5669 5668 5668 5668 5668 5669 5670 5670 5670 5670 5670 5670 5671 5671 5670 5671 5674 5677 5678 5677 5677 5678 5679 5680 5681 5680 5680 5680 5680 5681 5681 5682 5683 5685
5677 5675 5673 5671 5669 5668 5667 5667 5666 5665 5664 5663 5664 5664 5665 5665 5665 5665 5665 5665 5666 5666 5667 5667 5666 5668 5670 5673 5672 5671 5672 5673 5676 5677 5677 5677 5677 5677 5677 5678 5679 5680 5680
5675 5673 5670 5668 5667 5665 5664 5662 5661 5661 5659 5658 5658 5659 5659 5660 5661 5661 5660 5659 5659 5660 5661 5662 5661 5662 5664 5665 5667 5669 5670 5671 5671 5671 5672 5673 5673 5673 5674 5675 5676 5676 5676
5669 5668 5666 5665 5663 5663 5663 5661 5658 5656 5655 5654 5653 5653 5654 5655 5656 5656 5656 5655 5654 5654 5655 5656 5656 5656 5659 5662 5665 5666 5666 5665 5665 5668 5668 5668 5669 5669 5670 5671 5672 5672 5671
5664 5662 5662 5661 5659 5659 5659 5658 5656 5653 5651 5650 5650 5649 5650 5652 5652 5652 5651 5651 5650 5651 5651 5651 5651 5653 5655 5659 5661 5663 5663 5665 5668 5669 5666 5664 5663 5665 5667 5667 5667 5667 5666
5659 5657 5656 5655 5654 5655 5655 5655 5653 5650 5647 5647 5647 5646 5646 5648 5650 5649 5647 5646 5646 5647 5648 5648 5650 5651 5653 5656 5659 5662 5663 5664 5666 5666 5665 5660 5660 5661 5664 5663 5663 5663 5662
5652 5651 5651 5650 5649 5649 5650 5650 5648 5644 5642 5642 5643 5643 5644 5645 5648 5647 5644 5643 5643 5644 5645 5646 5647 5648 5650 5653 5655 5656 5657 5657 5658 5660 5661 5659 5658 5657 5658 5658 5659 5659 5658
5644 5644 5644 5644 5644 5643 5644 5644 5643 5639 5637 5637 5638 5639 5641 5642 5645 5645 5642 5641 5640 5642 5643 5644 5644 5645 5646 5648 5651 5653 5654 5653 5653 5654 5657 5655 5653 5651 5651 5652 5653 5653 5652